Location: Newark
(48.3453°N, 0.5589°E)
Time: 06:08:21
(UTC+00:00)

Vanguard 1 Rocket - All Passes

Search period start: 07 December 2019 00:00
Search period end: 17 December 2019 00:00
Orbit: 650 x 4226 km, 34.3° (Epoch: 05 December)

Date Brightness Start Highest point End Pass type
(mag) Time Alt. Az. Time Alt. Az. Time Alt. Az.
07 Dec - 02:15:02 10° WSW 02:18:49 16° SSW 02:21:50 10° S night (unlit)
07 Dec - 20:05:50 10° SSW 20:17:32 22° SSE 20:25:22 10° ESE visible
07 Dec - 22:32:38 10° SW 22:43:44 31° S 22:50:17 10° ESE visible
08 Dec - 01:01:40 10° WSW 01:08:21 24° SSW 01:12:53 10° SE night (unlit)
08 Dec - 18:54:45 10° S 19:05:17 17° SSE 19:13:05 10° ESE visible
08 Dec - 21:19:08 10° SW 21:32:09 30° S 21:39:54 10° ESE visible
08 Dec - 23:48:10 10° WSW 23:57:36 31° S 00:03:17 10° SE night (unlit)
09 Dec - 02:18:10 10° WSW 02:21:19 13° SSW 02:23:57 10° S night (unlit)
09 Dec - 17:47:00 10° SSE 17:52:50 12° SE 17:57:53 10° SE visible
09 Dec - 20:05:59 10° SSW 20:20:09 27° SSE 20:29:01 10° ESE visible
09 Dec - 22:34:20 10° WSW 22:46:25 35° S 22:53:21 10° ESE visible
10 Dec - 01:04:10 10° WSW 01:10:57 23° SSW 01:15:32 10° SSE night (unlit)
10 Dec - 18:53:46 10° SSW 19:07:47 23° SSE 19:17:23 10° ESE visible
10 Dec - 21:20:21 10° SW 21:34:48 35° S 21:43:04 10° ESE visible
10 Dec - 23:50:20 10° WSW 00:00:14 31° SSW 00:06:09 10° SE visible
11 Dec - 02:21:54 10° SW 02:23:44 11° SW 02:25:22 10° SSW night (unlit)
11 Dec - 17:43:19 10° S 17:55:11 17° SE 18:04:20 10° ESE visible
11 Dec - 20:06:36 10° SW 20:22:43 33° SSE 20:32:23 10° ESE visible
11 Dec - 22:36:10 10° WSW 22:49:05 37° S 22:56:20 10° ESE visible
12 Dec - 01:06:47 10° WSW 01:13:26 21° SSW 01:18:01 10° SSE night (unlit)
12 Dec - 16:37:55 10° SSE 16:42:31 11° SE 16:46:45 10° SE visible
12 Dec - 18:53:34 10° SSW 19:10:14 29° SSE 19:21:04 10° ESE visible
12 Dec - 21:21:47 10° WSW 21:37:25 39° S 21:46:08 10° ESE visible
12 Dec - 23:52:34 10° WSW 00:02:48 31° SSW 00:08:54 10° SE visible
13 Dec - 17:41:54 10° S 17:57:29 23° SSE 18:08:47 10° ESE visible
13 Dec - 20:07:33 10° SW 20:25:15 38° SSE 20:35:32 10° ESE visible
13 Dec - 22:38:06 10° WSW 22:51:40 38° S 22:59:12 10° SE visible
14 Dec - 01:09:33 10° WSW 01:15:50 19° SW 01:20:18 10° S night (unlit)
14 Dec - 16:32:38 10° S 16:44:38 16° SE 16:54:33 10° ESE visible
14 Dec - 18:53:55 10° SSW 19:12:38 34° SSE 19:24:25 10° ESE visible
14 Dec - 21:23:23 10° WSW 21:40:00 42° S 21:49:06 10° ESE visible
14 Dec - 23:54:52 10° W 00:05:17 29° SSW 00:11:33 10° SSE visible
15 Dec - 17:41:25 10° SSW 17:59:43 28° SSE 18:12:32 10° E visible
15 Dec - 20:08:46 10° SW 20:27:44 42° S 20:38:34 10° ESE visible
15 Dec - 22:40:07 10° WSW 22:54:11 38° SSW 23:02:01 10° SE visible
16 Dec - 01:12:32 10° WSW 01:18:06 16° SW 01:22:16 10° S night (unlit)
16 Dec - 16:30:40 10° S 16:46:41 22° SE 16:59:20 10° ESE visible
16 Dec - 18:54:40 10° SW 19:15:00 39° SSE 19:27:33 10° E visible
16 Dec - 21:25:07 10° WSW 21:42:30 44° S 21:51:59 10° ESE visible
